Regional Weather Roundup
Issued by NWS State College, PA

Home | Current Version | Previous Version | Graphics & Text | Print | Product List | Glossary Off
Versions: 1 2 3 4 5 6 7 8 9 10 11 12 13 14 15 16 17 18 19 20 21 22 23 24 25 26 27 28 29 30 31 32 33 34 35 36 37 38 39 40 41 42 43 44 45 46 47 48 49 50

000
ASUS41 KCTP 160003
RWRCTP

REGIONAL WEATHER ROUNDUP
NATIONAL WEATHER SERVICE STATE COLLEGE PA
800 PM EDT MON SEP 15 2014

Note: "fair" indicates few or no clouds below 12,000 feet with no
significant weather and/or obstructions to visibility.

* = STATION THAT DOES NOT REPORT PRECIPITATION /E.G. RAIN...SNOW...ETC/
    THUNDER OR FOG.

PAZ002>004-007>009-013>016-020>023-029>032-160100-
WESTERN PENNSYLVANIA

CITY           SKY/WX    TMP DP  RH WIND       PRES   REMARKS
ERIE           CLOUDY    61  52  72 S3        30.07F
MEADVILLE      CLOUDY    58  52  80 E3        30.07S
FRANKLIN*      CLOUDY    57  48  72 CALM      30.10R
NEW CASTLE     FAIR      59  53  80 CALM      30.07F
BEAVER COUNTY  PTCLDY    61  52  72 CALM      30.07F
BUTLER*        CLOUDY    59  48  67 CALM      30.09F
PITTSBURGH INT CLOUDY    63  51  65 S5        30.06F
PITTSBURGH     CLOUDY    63  48  58 S5        30.07F
INDIANA*       CLEAR     61  50  67 CALM      30.13F
LATROBE        MOCLDY    61  54  77 S7        30.09F
WASHINGTON CO* CLOUDY    55  52  88 CALM      30.08F
$$

PAZ004>006-010>012-017>019-024>028-033>037-041-042-045-046-049>053-160100-
CENTRAL PENNSYLVANIA

CITY           SKY/WX    TMP DP  RH WIND       PRES   REMARKS
BRADFORD       CLOUDY    57  48  72 CALM      30.09F
DUBOIS         MOCLDY    58  50  75 NW3       30.08F
CLEARFIELD     PTCLDY    59  50  72 NW5       30.09F
JOHNSTOWN      MOCLDY    59  45  59 SW5       30.11S
ALTOONA        MOCLDY    60  50  69 CALM      30.10S
STATE COLLEGE  CLEAR     59  50  72 CALM      30.10R
WILLIAMSPORT   MOCLDY    63  47  55 S6        30.08R
SELINSGROVE    CLOUDY    56  54  93 CALM      30.09F
FT INDIANTOWN  MOCLDY    57  57  99 NE2       30.10S
CAPITAL CITY   MOCLDY    64  50  60 SW5       30.09F
HARRISBURG     MOCLDY    66  52  60 SW8       30.08F
YORK           MOCLDY    56  52  86 CALM      30.10S
$$

PAZ038>040-043-044-047-048-054-055-060>062-067>071-160100-
EASTERN PENNSYLVANIA

CITY           SKY/WX    TMP DP  RH WIND       PRES   REMARKS
SCRANTON       PTCLDY    60  45  57 CALM      30.08F
MOUNT POCONO   PTCLDY    56  47  71 S3        30.12S
ALLENTOWN      PTCLDY    61  49  64 CALM      30.11S
QUAKERTOWN*    PTCLDY    59  50  72 CALM      30.12S
READING        PTCLDY    63  50  62 S3        30.09R
LANCASTER      MOCLDY    64  50  60 S8        30.10S
COATESVILLE    MOCLDY    59  52  77 W3        30.12F
POTTSTOWN      PTCLDY    61  49  64 CALM      30.12F
BLUE BELL      PTCLDY    57  54  88 CALM      30.11S
DOYLESTOWN     PTCLDY    57  49  74 CALM      30.09F
WILLOW GROVE   NOT AVBL
NORTH PHILA    PTCLDY    67  46  47 SW3       30.13R
PHILADELPHIA   MOCLDY    67  51  56 S7        30.12S
$$



USA.gov is the U.S. government's official web portal to all federal, state and local government web resources and services.